Home   Weather   Shreveport   Past weeks

Flag for USA Past Weather in Shreveport, Louisiana, USA — Yesterday and Last 2 Weeks

Now
78 °F

Scattered clouds.


Feels Like: 81 °F
Forecast: 77 / 93 °F
Wind: 5 mph from Southwest

Location: Shreveport Regional Airport

Current Time: Jul 23, 2017 at 8:04:23 am

Latest Report: Jul 23, 2017 at 6:56 am


Visibility: 10 mi

Pressure: 29.90 "Hg

Humidity: 96%

Dew Point: 77 °F

Location of ShreveportLocation

Past Weather in Shreveport — Graph

°F

Shreveport Temperature Yesterday

Maximum temperature yesterday: 95 °F (at 3:56 pm)
Minimum temperature yesterday: 77 °F (at 5:56 am)
Average temperature yesterday: 86 °F

High & Low Weather Summary for the Past Weeks

 TemperatureHumidityPressure
High96 °F (Jul 18, 5:56 pm)100% (Jul 9, 10:56 pm)30.14 "Hg (Jul 9, 10:56 pm)
Low69 °F (Jul 10, 3:56 am)20% (Jul 14, 6:56 pm)29.86 "Hg (Jul 22, 5:56 pm)
Average83 °F78%30.01 "Hg
* Reported Jul 8 6:56 am — Jul 23 6:56 am, Shreveport. Weather by CustomWeather, © 2017

Note: Actual official high and low records may vary slightly from our data, if they occured in-between our weather recording intervals... More about our weather records

Advertising

Shreveport Weather History for the Previous 24 Hours

Scroll right to see more
 ConditionsComfort  
Time TempWeatherWind HumidityBarometerVisibility
6:56 am
Sun, Jul 23
78 °FScattered clouds.5 mph96%29.90 "Hg10 mi
5:56 am77 °FPassing clouds.No wind96%29.90 "Hg10 mi
4:56 am77 °FPassing clouds.5 mph96%29.88 "Hg10 mi
3:56 am78 °FPassing clouds.5 mph93%29.89 "Hg10 mi
2:56 am79 °FPassing clouds.5 mph90%29.90 "Hg10 mi
1:56 am80 °FPassing clouds.5 mph87%29.90 "Hg10 mi
12:56 am80 °FPassing clouds.3 mph87%29.90 "Hg10 mi
11:56 pm
Sat, Jul 22
81 °FPassing clouds.8 mph82%29.90 "Hg10 mi
10:56 pm82 °FPassing clouds.5 mph82%29.90 "Hg10 mi
9:56 pm84 °FPassing clouds.12 mph77%29.90 "Hg10 mi
8:56 pm86 °FPassing clouds.12 mph72%29.89 "Hg10 mi
7:56 pm87 °FPartly sunny.6 mph59%29.86 "Hg10 mi
6:56 pm91 °FBroken clouds.7 mph56%29.86 "Hg10 mi
5:56 pm94 °FScattered clouds.8 mph52%29.86 "Hg10 mi
4:56 pm94 °FScattered clouds.9 mph51%29.87 "Hg10 mi
3:56 pm95 °FScattered clouds.12 mph49%29.88 "Hg10 mi
2:56 pm93 °FPartly sunny.7 mph54%29.90 "Hg10 mi
1:56 pm93 °FPartly sunny.8 mph54%29.92 "Hg10 mi
12:56 pm92 °FScattered clouds.5 mph56%29.94 "Hg10 mi
11:56 am91 °FPassing clouds.9 mph57%29.96 "Hg10 mi
10:56 am90 °FPassing clouds.5 mph63%29.97 "Hg10 mi
9:56 am87 °FScattered clouds.8 mph69%29.98 "Hg10 mi
8:56 am84 °FScattered clouds.8 mph77%29.98 "Hg10 mi
Weather by CustomWeather, © 2017

See weather overviewHow to use our weather pages